Fresno, TX

9:33 PM CST on February 07, 2016 (GMT -0600)
Houston-Southwest

Weather History for KAXH - February, 2013

Change the Weather History Date:

Monday, February 25, 2013

  Actual Average (KHOU) Record (KHOU)
Temperature  
Mean Temperature 61 °F 58 °F  
Max Temperature 74 °F 68 °F 85 °F (1918)
Min Temperature 48 °F 49 °F 26 °F (1974)
Degree Days  
Heating Degree Days 4 8  
Month to date heating degree days 242  
Since 1 July heating degree days 1166  
Growing Degree Days 11 (Base 50)    
Moisture  
Dew Point 44 °F    
Average Humidity 60    
Maximum Humidity 100    
Minimum Humidity 13    
Precipitation  
Precipitation 0.00 in 0.10 in 2.10 in (1907)
Month to date precipitation 2.85  
Year to date precipitation 6.23  
Sea Level Pressure  
Sea Level Pressure 29.64 in    
Wind  
Wind Speed 10 mph (WNW)    
Max Wind Speed 30 mph    
Max Gust Speed 40 mph    
Visibility 7 miles    
Events Fog    
T = Trace of Precipitation, MM = Missing Value Source: NWS Daily Summary

Daily Weather History Graph

Daily Weather History Graph

Search for Another Location

Airport or City:

Trip Planner

Search our weather history database for the weather conditions in past years. The results will help you decide how hot, cold, wet, or windy it might be!

Date:

Astronomy

Feb. 25, 2013 Rise Set
Actual Time 6:51 AM CST 6:18 PM CST
Civil Twilight 6:27 AM CST 6:42 PM CST
Nautical Twilight 5:59 AM CST 7:10 PM CST
Astronomical Twilight 5:32 AM CST 7:38 PM CST
Moon 6:27 PM CST (2/25) 6:25 AM CST (2/25)
Length of Visible Light 12h 15m
Length of Day
11h 27m
Full, 100% of the Moon is Illuminated
Feb 25
Full
Feb 25
Full
Mar 4
Last Quarter
Mar 11
New
Mar 19
First Quarter

Hourly Weather History & Observations

Time (CST) Temp. Dew Point Humidity Pressure Visibility Wind Dir Wind Speed Gust Speed Precip Events Conditions
12:15 AM 61.7 °F 59.9 °F 94% 29.67 in 7.0 mi ESE 6.9 mph - N/A   Overcast
12:35 AM 61.3 °F 59.9 °F 95% 29.65 in 7.0 mi East 6.9 mph - N/A   Overcast
12:55 AM 61.7 °F 60.1 °F 94% 29.65 in 7.0 mi East 8.1 mph - N/A   Overcast
1:15 AM 61.7 °F 60.3 °F 95% 29.65 in 7.0 mi East 6.9 mph - N/A   Overcast
1:35 AM 61.7 °F 60.3 °F 95% 29.63 in 7.0 mi ESE 8.1 mph - N/A   Overcast
1:55 AM 61.5 °F 60.4 °F 96% 29.62 in 5.0 mi East 5.8 mph - N/A   Overcast
2:15 AM 61.2 °F 60.6 °F 98% 29.60 in 3.0 mi ESE 4.6 mph - N/A   Overcast
2:35 AM 61.0 °F 60.8 °F 99% 29.59 in 2.0 mi East 4.6 mph - N/A   Overcast
2:55 AM 60.8 °F 60.6 °F 99% 29.59 in 1.8 mi East 5.8 mph - N/A   Overcast
3:15 AM 60.8 °F 60.8 °F 100% 29.58 in 1.2 mi SE 3.5 mph - N/A   Overcast
3:35 AM 61.0 °F 60.8 °F 99% 29.58 in 1.5 mi Calm Calm - N/A   Overcast
3:55 AM 61.2 °F 61.0 °F 99% 29.58 in 1.2 mi SE 3.5 mph - N/A   Overcast
4:15 AM 61.2 °F 61.0 °F 99% 29.57 in 1.2 mi SSE 3.5 mph - N/A   Overcast
4:35 AM 61.3 °F 61.3 °F 100% 29.58 in 0.8 mi Calm Calm - N/A   Overcast
4:55 AM 61.5 °F 61.5 °F 100% 29.58 in 0.5 mi Calm Calm - N/A Fog Fog
5:15 AM 61.7 °F 61.7 °F 100% 29.59 in 0.5 mi Calm Calm - N/A Fog Fog
5:35 AM 61.7 °F 61.7 °F 100% 29.60 in 0.2 mi Calm Calm - N/A Fog Fog
6:15 AM 61.9 °F 61.7 °F 99% 29.59 in 0.2 mi Calm Calm - N/A Fog Fog
6:35 AM 62.1 °F 62.1 °F 100% 29.59 in 0.5 mi Calm Calm - N/A Fog Fog
6:55 AM 61.9 °F 61.9 °F 100% 29.58 in 0.2 mi Calm Calm - N/A Fog Fog
7:15 AM 62.2 °F 62.2 °F 100% 29.59 in 0.2 mi Calm Calm - N/A Fog Fog
7:35 AM 62.6 °F 62.6 °F 100% 29.61 in 0.2 mi Calm Calm - N/A Fog Fog
7:55 AM 63.0 °F 63.0 °F 100% 29.61 in 0.2 mi NNW 4.6 mph - N/A Fog Fog
8:15 AM 63.1 °F 63.1 °F 100% 29.61 in 0.2 mi North 3.5 mph - N/A Fog Fog
8:35 AM 63.5 °F 63.5 °F 100% 29.61 in 0.2 mi Calm Calm - N/A Fog Fog
8:55 AM 64.4 °F 64.4 °F 100% 29.61 in 1.0 mi Calm Calm - N/A   Overcast
9:15 AM 65.5 °F 65.5 °F 100% 29.60 in 1.8 mi Calm Calm - N/A   Light Drizzle
9:35 AM 66.4 °F 66.4 °F 100% 29.61 in 3.0 mi SW 4.6 mph - N/A   Overcast
9:55 AM 68.0 °F 68.0 °F 100% 29.61 in 5.0 mi WSW 5.8 mph - N/A   Overcast
10:15 AM 66.4 °F 63.5 °F 90% 29.62 in 7.0 mi WNW 11.5 mph 24.2 mph N/A   Light Drizzle
10:35 AM 68.7 °F 56.7 °F 65% 29.62 in 10.0 mi WNW 13.8 mph 21.9 mph N/A   Mostly Cloudy
10:55 AM 69.4 °F 46.0 °F 43% 29.63 in 10.0 mi NW 15.0 mph 24.2 mph N/A   Mostly Cloudy
11:15 AM 70.9 °F 39.0 °F 31% 29.62 in 10.0 mi NW 18.4 mph 26.5 mph N/A   Scattered Clouds
11:35 AM 72.0 °F 43.7 °F 36% 29.62 in 10.0 mi NW 13.8 mph 21.9 mph N/A   Clear
11:55 AM 72.7 °F 36.7 °F 27% 29.60 in 10.0 mi NW 16.1 mph 25.3 mph N/A   Clear
12:15 PM 73.8 °F 38.3 °F 28% 29.60 in 10.0 mi WNW 15.0 mph 20.7 mph N/A   Clear
12:35 PM 73.6 °F 38.1 °F 28% 29.60 in 10.0 mi NW 16.1 mph 25.3 mph N/A   Clear
12:55 PM 74.3 °F 37.6 °F 26% 29.59 in 10.0 mi WNW 19.6 mph 28.8 mph N/A   Clear
1:15 PM 73.6 °F 35.6 °F 25% 29.60 in 10.0 mi WNW 18.4 mph 27.6 mph N/A   Clear
1:35 PM 73.8 °F 32.4 °F 22% 29.58 in 10.0 mi WNW 20.7 mph 27.6 mph N/A   Clear
1:55 PM 74.5 °F 27.1 °F 17% 29.57 in 10.0 mi West 19.6 mph 29.9 mph N/A   Clear
2:15 PM 74.5 °F 22.5 °F 14% 29.57 in 10.0 mi West 24.2 mph 33.4 mph N/A   Scattered Clouds
2:35 PM 74.7 °F 23.4 °F 15% 29.56 in 10.0 mi West 23.0 mph 27.6 mph N/A   Scattered Clouds
2:55 PM 74.1 °F 21.6 °F 14% 29.55 in 10.0 mi West 20.7 mph 32.2 mph N/A   Scattered Clouds
3:15 PM 73.4 °F 19.4 °F 13% 29.55 in 10.0 mi West 20.7 mph 36.8 mph N/A   Mostly Cloudy
3:35 PM 72.1 °F 18.0 °F 13% 29.56 in 10.0 mi West 19.6 mph 35.7 mph N/A   Mostly Cloudy
3:55 PM 71.6 °F 22.1 °F 16% 29.57 in 10.0 mi WNW 21.9 mph 27.6 mph N/A   Clear
4:15 PM 69.1 °F 23.0 °F 18% 29.58 in 10.0 mi WNW 29.9 mph 38.0 mph N/A   Clear
4:35 PM 67.3 °F 26.8 °F 22% 29.59 in 10.0 mi WNW 18.4 mph 39.1 mph N/A   Clear
4:55 PM 66.0 °F 28.0 °F 24% 29.60 in 10.0 mi WNW 24.2 mph 32.2 mph N/A   Clear
5:15 PM 64.4 °F 27.3 °F 25% 29.62 in 10.0 mi West 28.8 mph 40.3 mph N/A   Clear
5:35 PM 62.4 °F 27.5 °F 27% 29.64 in 10.0 mi West 18.4 mph 34.5 mph N/A   Clear
5:55 PM 60.6 °F 26.4 °F 27% 29.65 in 10.0 mi WNW 24.2 mph 35.7 mph N/A   Clear
6:15 PM 59.7 °F 25.5 °F 27% 29.66 in 10.0 mi West 16.1 mph 33.4 mph N/A   Clear
6:35 PM 58.5 °F 24.8 °F 27% 29.67 in 10.0 mi West 20.7 mph 32.2 mph N/A   Clear
6:55 PM 57.4 °F 25.7 °F 30% 29.68 in 10.0 mi WNW 21.9 mph 28.8 mph N/A   Clear
7:15 PM 56.5 °F 26.2 °F 31% 29.69 in 10.0 mi WNW 16.1 mph 24.2 mph N/A   Clear
7:35 PM 55.8 °F 27.1 °F 33% 29.70 in 10.0 mi WNW 15.0 mph 25.3 mph N/A   Clear
7:55 PM 55.4 °F 27.1 °F 34% 29.73 in 10.0 mi West 21.9 mph 31.1 mph N/A   Clear
8:15 PM 53.8 °F 27.3 °F 36% 29.74 in 10.0 mi West 24.2 mph 28.8 mph N/A   Clear
8:35 PM 52.7 °F 28.0 °F 39% 29.75 in 10.0 mi WNW 18.4 mph 32.2 mph N/A   Clear
8:55 PM 51.8 °F 28.2 °F 40% 29.76 in 10.0 mi WNW 20.7 mph 27.6 mph N/A   Clear
9:15 PM 51.1 °F 28.4 °F 42% 29.77 in 10.0 mi West 18.4 mph 27.6 mph N/A   Clear
9:35 PM 50.9 °F 28.2 °F 42% 29.78 in 10.0 mi West 20.7 mph 35.7 mph N/A   Clear
9:55 PM 50.4 °F 29.1 °F 44% 29.78 in 10.0 mi West 19.6 mph 27.6 mph N/A   Clear
10:15 PM 50.0 °F 29.3 °F 45% 29.79 in 10.0 mi West 15.0 mph 28.8 mph N/A   Clear
10:55 PM 49.1 °F 30.0 °F 48% 29.79 in 10.0 mi West 16.1 mph 23.0 mph N/A   Clear
11:15 PM 48.6 °F 30.2 °F 49% 29.79 in 10.0 mi WNW 13.8 mph 19.6 mph N/A   Clear
11:35 PM 48.6 °F 30.7 °F 50% 29.79 in 10.0 mi WNW 18.4 mph 25.3 mph N/A   Clear
11:55 PM 48.4 °F 31.1 °F 51% 29.80 in 10.0 mi WNW 21.9 mph 31.1 mph N/A   Clear